Location: Pacheco
(37.9835°N, 122.0752°W)
Time: 22:14:29
(UTC+00:00)

Cosmos 921 Rocket - Visible Passes

Search period start: 21 July 2024 00:00
Search period end: 31 July 2024 00:00
Orbit: 568 x 625 km, 75.8° (Epoch: 20 July)

Date Brightness Start Highest point End Pass type
(mag) Time Alt. Az. Time Alt. Az. Time Alt. Az.
21 Jul 5.0 05:10:28 10° NW 05:13:47 23° W 05:17:07 10° SSW visible
22 Jul 5.7 05:21:49 10° WNW 05:23:49 13° W 05:25:51 10° WSW visible
23 Jul 2.9 03:52:08 10° NNW 03:56:21 78° ENE 04:00:37 10° SSE visible
24 Jul 3.6 04:02:24 10° NNW 04:06:33 58° WSW 04:10:45 10° S visible
25 Jul 4.7 04:12:55 10° NW 04:16:41 32° W 04:20:30 10° SSW visible
26 Jul 5.6 04:23:47 10° NW 04:26:46 19° W 04:29:46 10° SW visible
27 Jul 6.1 04:35:48 10° W 04:36:47 11° W 04:37:46 10° WSW visible
